Location: Csohesd
(46.2500°N, 22.6167°E)
Time: 20:54:01
(UTC+00:00)

SL-19 R/B - Pass Details

Date: 29 May 2022
Orbit: 874 x 1208 km, 100.6° (Epoch: 02 July)

Event Time Altitude Azimuth Distance (km) Brightness Sun altitude
Rises 20:00:43 0° 6° (N) 3,982 8.5 -14.4°
Reaches altitude 10° 20:04:25 10° 346° (NNW) 3,070 8.3 -14.8°
Maximum altitude 20:08:15 16° 313° (NW) 2,694 7.9 -15.1°
Drops below altitude 10° 20:12:10 10° 279° (W) 3,137 7.7 -15.5°
Sets 20:16:02 0° 260° (W) 4,114 8.1 -15.8°
